Zurück zum Katalog

KOSEN 1

KOSEN-1

AktivAmateurfunkSSO
NORAD 49402·PAYLOAD·🇯🇵 Japan

Gestartet Nov 9, 2021 von Uchinoura Space Center

Loading…

Nächste Überflüge (nächste 24 Stunden)

TLE

AktuellSource: AMSAT

Epoche: Sep 14, 2026, 08:52 UTC

1 49402U 21102H   26257.36975564  .00005255  00000-0  19518-3 0  9996
2 49402  97.3104 297.8260 0011664 248.4961 111.5035 15.27925970267638

Verfolge KOSEN 1 in Echtzeit mit AllMySat

Download on the App Store